| time (UTC) | temp F | wind direction | speed knots | gust knots | rain 1hr in | rain 24hr in | rain mn in | humidity % | barometer mb |
| 20260831213713 | 74 | 193 | 0.0 | 2.6 | 0.00 | 0.00 | 0.00 | 36 | 1012.4 |
| 20260831212735 | 74 | 193 | 0.0 | 3.5 | 0.00 | 0.00 | 0.00 | 33 | 1012.3 |
| 20260831211703 | 74 | 193 | 0.9 | 3.5 | 0.00 | 0.00 | 0.00 | 38 | 1012.6 |
| 20260831205605 | 73 | 352 | 0.0 | 4.3 | 0.00 | 0.00 | 0.00 | 34 | 1012.8 |
| 20260831204542 | 73 | 340 | 0.9 | 4.3 | 0.00 | 0.00 | 0.00 | 35 | 1012.9 |
| 20260831203545 | 73 | 323 | 0.0 | 4.3 | 0.00 | 0.00 | 0.00 | 35 | 1013.0 |
| 20260831202528 | 72 | 337 | 0.9 | 0.0 | 0.00 | 0.00 | 0.00 | 36 | 1013.2 |
| 20260831201533 | 72 | 338 | 0.0 | 2.6 | 0.00 | 0.00 | 0.00 | 40 | 1013.3 |
| 20260831200519 | 72 | 338 | 0.9 | 5.2 | 0.00 | 0.00 | 0.00 | 38 | 1013.4 |
| 20260831195516 | 72 | 337 | 0.9 | 5.2 | 0.00 | 0.00 | 0.00 | 39 | 1013.5 |
| 20260831194514 | 72 | 337 | 0.9 | 3.5 | 0.00 | 0.00 | 0.00 | 35 | 1013.6 |
| 20260831193458 | 71 | 343 | 0.9 | 3.5 | 0.00 | 0.00 | 0.00 | 38 | 1013.9 |
| 20260831192446 | 70 | 337 | 0.9 | 6.1 | 0.00 | 0.00 | 0.00 | 37 | 1014.1 |
| 20260831191435 | 69 | 338 | 0.9 | 6.1 | 0.00 | 0.00 | 0.00 | 38 | 1014.3 |
| 20260831185359 | 70 | 337 | 0.9 | 6.1 | 0.00 | 0.00 | 0.00 | 38 | 1014.5 |
| 20260831184411 | 70 | 337 | 0.9 | 6.1 | 0.00 | 0.00 | 0.00 | 40 | 1014.5 |
| 20260831183425 | 69 | 193 | 0.9 | 5.2 | 0.00 | 0.00 | 0.00 | 39 | 1014.6 |
| 20260831182429 | 69 | 193 | 0.9 | 5.2 | 0.00 | 0.00 | 0.00 | 38 | 1014.6 |
| 20260831181444 | 69 | 193 | 0.9 | 4.3 | 0.00 | 0.00 | 0.00 | 40 | 1014.7 |
| 20260831180420 | 68 | 193 | 0.9 | 6.1 | 0.00 | 0.00 | 0.00 | 40 | 1014.8 |
| 20260831175420 | 67 | 194 | 0.9 | 6.1 | 0.00 | 0.00 | 0.00 | 41 | 1014.8 |
| 20260831174409 | 67 | 347 | 0.9 | 5.2 | 0.00 | 0.00 | 0.00 | 41 | 1014.9 |
| 20260831173356 | 67 | 338 | 0.9 | 7.0 | 0.00 | 0.00 | 0.00 | 41 | 1015.0 |
| 20260831171225 | 65 | 339 | 0.9 | 7.8 | 0.00 | 0.00 | 0.00 | 43 | 1015.2 |
| 20260831165039 | 63 | 337 | 0.9 | 7.8 | 0.00 | 0.00 | 0.00 | 46 | 1015.3 |
| 20260831164021 | 63 | 341 | 1.7 | 7.8 | 0.00 | 0.00 | 0.00 | 43 | 1015.3 |
| 20260831163025 | 63 | 338 | 0.9 | 8.7 | 0.00 | 0.00 | 0.00 | 45 | 1015.2 |
| 20260831160906 | 61 | 181 | 0.9 | 5.2 | 0.00 | 0.00 | 0.00 | 49 | 1015.3 |
| 20260831153636 | 58 | 188 | 0.0 | 3.5 | 0.00 | 0.00 | 0.00 | 51 | 1015.2 |
| 20260831152620 | 58 | 188 | 0.0 | 2.6 | 0.00 | 0.00 | 0.00 | 55 | 1015.4 |
| 20260831151554 | 57 | 188 | 0.9 | 3.5 | 0.00 | 0.00 | 0.00 | 53 | 1015.4 |
| 20260831150530 | 55 | 188 | 0.9 | 4.3 | 0.00 | 0.00 | 0.00 | 55 | 1015.2 |
| 20260831145539 | 53 | 188 | 0.0 | 4.3 | 0.00 | 0.00 | 0.00 | 62 | 1015.2 |
| 20260831143423 | 50 | 187 | 0.0 | 0.0 | 0.00 | 0.00 | 0.00 | 73 | 1015.2 |
| 20260831142413 | 49 | 4 | 0.0 | 0.0 | 0.00 | 0.00 | 0.00 | 73 | 1015.0 |
| 20260831141434 | 48 | 7 | 0.0 | 0.0 | 0.00 | 0.00 | 0.00 | 74 | 1015.0 |
| 20260831140452 | 47 | 24 | 0.0 | 0.0 | 0.00 | 0.00 | 0.00 | 75 | 1014.9 |
| 20260831135453 | 46 | 31 | 0.0 | 0.0 | 0.00 | 0.00 | 0.00 | 73 | 1014.8 |
| 20260831134445 | 46 | 190 | 0.0 | 0.0 | 0.00 | 0.00 | 0.00 | 75 | 1014.8 |
| 20260831132312 | 46 | 191 | 0.0 | 0.0 | 0.00 | 0.00 | 0.00 | 72 | 1014.4 |
| 20260831130132 | 46 | 191 | 0.0 | 0.0 | 0.00 | 0.00 | 0.00 | 69 | 1014.2 |
| 20260831123926 | 47 | 191 | 0.0 | 0.0 | 0.00 | 0.00 | 0.00 | 66 | 1013.6 |
| 20260831122935 | 48 | 191 | 0.0 | 0.0 | 0.00 | 0.00 | 0.00 | 66 | 1013.6 |
| 20260831121954 | 47 | 191 | 0.9 | 3.5 | 0.00 | 0.00 | 0.00 | 64 | 1013.4 |
| 20260831121014 | 47 | 191 | 0.0 | 3.5 | 0.00 | 0.00 | 0.00 | 66 | 1013.5 |
| 20260831120004 | 47 | 191 | 0.0 | 0.0 | 0.00 | 0.00 | 0.00 | 67 | 1013.4 |
| 20260831115002 | 47 | 191 | 0.0 | 0.0 | 0.00 | 0.00 | 0.00 | 66 | 1013.3 |
| 20260831113934 | 47 | 191 | 0.0 | 1.7 | 0.00 | 0.00 | 0.00 | 67 | 1013.2 |
| 20260831112937 | 47 | 191 | 0.0 | 0.9 | 0.00 | 0.00 | 0.00 | 68 | 1013.0 |
| 20260831110814 | 46 | 191 | 0.0 | 0.0 | 0.00 | 0.00 | 0.00 | 71 | 1012.8 |
| 20260831105819 | 46 | 191 | 0.0 | 0.0 | 0.00 | 0.00 | 0.00 | 70 | 1012.6 |
| 20260831104826 | 46 | 191 | 0.0 | 0.0 | 0.00 | 0.01 | 0.00 | 71 | 1012.6 |
| 20260831103845 | 46 | 191 | 0.0 | 0.0 | 0.00 | 0.01 | 0.00 | 70 | 1012.5 |
| 20260831102826 | 46 | 191 | 0.0 | 0.0 | 0.00 | 0.01 | 0.00 | 71 | 1012.4 |
| 20260831101753 | 46 | 191 | 0.0 | 3.5 | 0.00 | 0.01 | 0.00 | 71 | 1012.4 |
| 20260831100722 | 46 | 42 | 0.0 | 0.0 | 0.00 | 0.01 | 0.00 | 69 | 1012.4 |
| 20260831095721 | 47 | 39 | 0.0 | 0.0 | 0.00 | 0.01 | 0.00 | 67 | 1012.4 |
| 20260831093544 | 49 | 28 | 0.0 | 0.0 | 0.00 | 0.01 | 0.00 | 63 | 1012.0 |
| 20260831091415 | 50 | 20 | 0.9 | 3.5 | 0.00 | 0.01 | 0.00 | 59 | 1012.0 |
| 20260831090414 | 50 | 18 | 0.0 | 2.6 | 0.00 | 0.01 | 0.00 | 58 | 1012.1 |
| 20260831085415 | 52 | 13 | 0.0 | 0.0 | 0.00 | 0.01 | 0.00 | 55 | 1012.2 |
| 20260831082032 | 54 | 355 | 0.9 | 6.1 | 0.00 | 0.01 | 0.00 | 51 | 1012.4 |
| 20260831075839 | 54 | 353 | 0.9 | 8.7 | 0.00 | 0.01 | 0.00 | 51 | 1012.2 |
| 20260831074832 | 55 | 355 | 0.9 | 8.7 | 0.00 | 0.01 | 0.00 | 50 | 1012.2 |
| 20260831073807 | 54 | 354 | 1.7 | 8.7 | 0.00 | 0.01 | 0.00 | 51 | 1012.1 |
| 20260831072802 | 53 | 0 | 1.7 | 7.0 | 0.00 | 0.01 | 0.00 | 54 | 1012.0 |
| 20260831071801 | 51 | 14 | 0.9 | 7.0 | 0.00 | 0.01 | 0.00 | 58 | 1011.9 |
| 20260831070754 | 49 | 35 | 0.0 | 3.5 | 0.00 | 0.01 | 0.00 | 63 | 1011.9 |
| 20260831065756 | 49 | 41 | 0.0 | 0.9 | 0.00 | 0.01 | 0.00 | 65 | 1012.0 |
| 20260831064814 | 49 | 37 | 0.0 | 0.9 | 0.00 | 0.01 | 0.00 | 67 | 1011.9 |
| 20260831063820 | 49 | 37 | 0.0 | 0.0 | 0.00 | 0.01 | 0.00 | 67 | 1011.9 |
| 20260831062745 | 48 | 37 | 0.0 | 0.9 | 0.00 | 0.01 | 0.00 | 67 | 1011.8 |
| 20260831060542 | 48 | 36 | 0.0 | 2.6 | 0.00 | 0.01 | 0.00 | 67 | 1011.8 |
| 20260831055520 | 48 | 38 | 0.0 | 0.0 | 0.00 | 0.01 | 0.01 | 67 | 1011.6 |
| 20260831054508 | 49 | 38 | 0.0 | 0.0 | 0.00 | 0.01 | 0.01 | 66 | 1011.6 |
| 20260831053434 | 49 | 34 | 0.0 | 0.0 | 0.00 | 0.01 | 0.01 | 66 | 1011.5 |
| 20260831052414 | 50 | 32 | 0.0 | 0.0 | 0.00 | 0.01 | 0.01 | 64 | 1011.6 |
| 20260831051430 | 50 | 34 | 0.0 | 0.0 | 0.00 | 0.01 | 0.01 | 68 | 1011.3 |
| 20260831050451 | 51 | 32 | 0.0 | 0.0 | 0.00 | 0.01 | 0.01 | 66 | 1011.3 |
| 20260831045430 | 51 | 30 | 0.0 | 0.0 | 0.00 | 0.01 | 0.01 | 64 | 1011.3 |
| 20260831044414 | 51 | 30 | 0.0 | 0.0 | 0.00 | 0.01 | 0.01 | 65 | 1011.2 |
| 20260831040030 | 51 | 24 | 0.0 | 0.0 | 0.00 | 0.01 | 0.01 | 65 | 1010.7 |
| 20260831035055 | 51 | 28 | 0.0 | 0.0 | 0.00 | 0.01 | 0.01 | 66 | 1010.6 |
| 20260831034041 | 52 | 18 | 0.0 | 0.0 | 0.00 | 0.01 | 0.01 | 63 | 1010.5 |
| 20260831031938 | 54 | 357 | 0.0 | 0.0 | 0.00 | 0.01 | 0.01 | 61 | 1010.3 |
| 20260831030913 | 55 | 352 | 0.0 | 0.0 | 0.00 | 0.01 | 0.01 | 55 | 1010.2 |
| 20260831025933 | 57 | 346 | 0.0 | 0.0 | 0.00 | 0.01 | 0.01 | 53 | 1010.1 |
| 20260831024905 | 57 | 344 | 0.0 | 0.0 | 0.00 | 0.01 | 0.01 | 49 | 1010.0 |
| 20260831023858 | 58 | 344 | 0.0 | 0.0 | 0.00 | 0.01 | 0.01 | 48 | 1009.8 |
| 20260831022916 | 59 | 342 | 0.0 | 0.0 | 0.00 | 0.01 | 0.01 | 46 | 1009.6 |
| 20260831015739 | 61 | 338 | 0.0 | 1.7 | 0.00 | 0.01 | 0.01 | 43 | 1009.3 |
| 20260831014756 | 62 | 337 | 0.0 | 2.6 | 0.00 | 0.01 | 0.01 | 42 | 1009.1 |
| 20260831012705 | 64 | 336 | 0.0 | 1.7 | 0.00 | 0.02 | 0.01 | 42 | 1008.9 |
| 20260831010531 | 65 | 337 | 0.9 | 2.6 | 0.00 | 0.05 | 0.01 | 39 | 1008.8 |
| 20260831005532 | 66 | 337 | 0.9 | 7.8 | 0.00 | 0.05 | 0.01 | 38 | 1008.8 |
| 20260831004542 | 66 | 337 | 0.9 | 7.8 | 0.00 | 0.05 | 0.01 | 36 | 1008.8 |
| 20260831003526 | 65 | 337 | 0.9 | 5.2 | 0.00 | 0.05 | 0.01 | 37 | 1008.6 |
| 20260831002517 | 65 | 337 | 0.9 | 7.8 | 0.00 | 0.05 | 0.01 | 36 | 1008.6 |
| 20260831001537 | 65 | 337 | 0.0 | 7.8 | 0.00 | 0.05 | 0.01 | 40 | 1008.6 |
| 20260831000527 | 64 | 336 | 0.9 | 7.0 | 0.00 | 0.05 | 0.01 | 38 | 1008.7 |
| 20260830235543 | 65 | 336 | 0.9 | 3.5 | 0.00 | 0.05 | 0.01 | 41 | 1008.5 |
| 20260830234539 | 65 | 336 | 0.0 | 3.5 | 0.00 | 0.05 | 0.01 | 40 | 1008.6 |
| 20260830233513 | 66 | 337 | 0.9 | 5.2 | 0.00 | 0.05 | 0.01 | 36 | 1008.6 |
| 20260830232520 | 66 | 338 | 0.9 | 5.2 | 0.00 | 0.05 | 0.01 | 41 | 1008.7 |
| 20260830230432 | 66 | 337 | 0.9 | 5.2 | 0.00 | 0.05 | 0.01 | 37 | 1008.6 |
| 20260830224247 | 69 | 338 | 0.9 | 3.5 | 0.00 | 0.05 | 0.01 | 32 | 1008.5 |
| 20260830223308 | 70 | 339 | 0.9 | 8.7 | 0.00 | 0.05 | 0.01 | 32 | 1008.5 |
| 20260830222254 | 70 | 349 | 1.7 | 9.6 | 0.00 | 0.05 | 0.01 | 32 | 1008.6 |
| 20260830221226 | 71 | 351 | 1.7 | 9.6 | 0.00 | 0.05 | 0.01 | 32 | 1008.5 |
| 20260830215046 | 70 | 338 | 1.7 | 9.6 | 0.00 | 0.05 | 0.01 | 31 | 1008.5 |